星链-36792(STARLINK-36792)

导读

STARLINK-36792是美国SpaceX公司星链(Starlink)星座的一颗卫星,于2026年2月15日发射。作为星链第二代组网的成员之一,它运行于近地轨道,主要为全球提供高速低延迟卫星宽带服务。该卫星延续了星链成熟设计,配备太阳能电池阵与星间激光通信设备,助力全球网络覆盖扩展,尤其推动高纬度地区与偏远区域的互联网接入能力提升,是星链2026年星座扩容升级计划的组成部分。

Basic Information
目录编号:
67804
目录名称:
STARLINK-36792
国际标识:
2026-032H
轨道中心:
EARTH
卫星名称:
星链-36792
卫星全名:
星链-36792(STARLINK-36792)
卫星状态:
在轨 (已飞行202 天)
发射日期:
2026-02-15 UTC
国别 :
美国 (US)
星等 :
--
Orbit Information
数据来源 国际轨道数据
星历时间: 2026-09-05T07:38:59+0800
13小时前
查看轨道信息
半长轴: 6843.663km
偏心率: 0.0000784
轨道倾角: 97.285°
近地点辐角 95.335°
升交点赤经 74.552°
平近点角 264.798°
近地点: 464.989km
远地点: 466.063km
周期: 93.906分钟
每日圈数: 15.334508
Detailed Information
固有亮度:
5
最大亮度:
2.5
卫星平台:
Starlink V1.0
覆盖范围:
全球
运营商:
太空探索技术公司
运营商所在国:
美国
制造商(研发单位):
太空探索技术公司
制造商所在国:
美国
使用方式:
暂无
Satellite Introduction
Starlink 计划是 SpaceX 推出的全球卫星互联网项目,通过发射低轨道卫星,为全球尤其是偏远地区提供高速、低延迟的互联网服务。自 2019 年起,Starlink 已部署数千颗卫星,旨在缩小全球数字鸿沟,推动互联网普及。该项目还为军事、航空等行业提供通信支持,带来广泛经济效益。
2D Orbit Map
3D Orbit Map
Orbit Altitude Analysis Chart
Orbit Inclination Analysis Chart
Orbit Comprehensive Analysis Chart
View Comprehensive Chart
Conjunction Data List
Event ID Objects TCA Miss Dist (km) Collision Risk Probability Collision Risk Index (CRI) Action
CDM_260907-135405-912306-780421
2026-09-07T
13:54:56+0000
0.844 km
远距离
2.592313E-5 中风险 0.63
CDM_260907-192206-780406-903121
2026-09-07T
19:22:24+0000
1.372 km
极远距离
3.474717E-6 低风险 0.46
CDM_260907-183506-780406-903121
2026-09-07T
18:35:25+0000
1.442 km
极远距离
2.956123E-6 低风险 0.44
CDM_260907-112305-298806-780421
2026-09-07T
11:23:33+0000
2.002 km
极远距离
2.417762E-6 低风险 0.43
CDM_260906-204205-802006-780422
NESS (58020)
2026-09-06T
20:42:42+0000
2.186 km
极远距离
1.973616E-6 低风险 0.41
CDM_260907-154005-390006-780421
2026-09-07T
15:40:46+0000
2.415 km
极远距离
1.827425E-6 低风险 0.4
CDM_260907-131905-390006-780421
2026-09-07T
13:19:53+0000
2.573 km
极远距离
1.63264E-6 低风险 0.39
CDM_260908-014805-112406-780421
2026-09-08T
01:48:32+0000
2.643 km
极远距离
1.480632E-6 低风险 0.38
CDM_260907-043206-050406-780421
YAM-7 (60504)
2026-09-07T
04:32:46+0000
2.934 km
极远距离
1.227324E-6 低风险 0.37
CDM_260907-170106-780406-903121
2026-09-07T
17:01:27+0000
2.759 km
极远距离
6.761058E-7 极低风险 0.32